This is the latest recevied weather packets stored in our database for station/object KB3KBR-WX. If no packets are shown the sender has not sent any weather packets the latest 10 day(s).
| Time | Temp. | Humidity | Pressure | Rain* | Wind** | Luminosity | Snow |
|---|---|---|---|---|---|---|---|
| 1788029731 | 25.56° C | 49% | 1020.9 hPa | 0 mm | - | - | - |
| 1788029401 | 25.56° C | 49% | 1021 hPa | 0 mm | - | - | - |
| 1788029071 | 25.56° C | 50% | 1021 hPa | 0 mm | - | - | - |
| 1788028771 | 25.56° C | 52% | 1021.2 hPa | 0 mm | - | - | - |
| 1788028441 | 25° C | 49% | 1021.4 hPa | 0 mm | - | - | - |
| 1788028111 | 25° C | 50% | 1021.4 hPa | 0 mm | - | - | - |
| 1788027811 | 25° C | 51% | 1021.3 hPa | 0 mm | - | - | - |
| 1788027511 | 25° C | 50% | 1021.3 hPa | 0 mm | - | - | - |
| 1788027213 | 25° C | 49% | 1021.3 hPa | 0 mm | - | - | - |
| 1788026655 | 25° C | 49% | 1021.4 hPa | 0 mm | - | - | - |
| 1788026611 | 25° C | 49% | 1021.4 hPa | 0 mm | - | - | - |
| 1788026348 | 25° C | 50% | 1021.5 hPa | 0 mm | - | - | - |
| 1788026281 | 25° C | 50% | 1021.5 hPa | 0 mm | - | - | - |
| 1788025982 | 25° C | 51% | 1021.5 hPa | 0 mm | - | - | - |
| 1788025651 | 24.44° C | 52% | 1021.6 hPa | 0 mm | - | - | - |
| 1788025321 | 24.44° C | 50% | 1021.6 hPa | 0 mm | - | - | - |
| 1788024991 | 24.44° C | 52% | 1021.6 hPa | 0 mm | - | - | - |
| 1788024691 | 24.44° C | 50% | 1021.9 hPa | 0 mm | - | - | - |
| 1788024361 | 24.44° C | 53% | 1022.1 hPa | 0 mm | - | - | - |
| 1788024061 | 24.44° C | 51% | 1022 hPa | 0 mm | - | - | - |
| 1788023731 | 23.89° C | 52% | 1021.7 hPa | 0 mm | - | - | - |
| 1788023430 | 23.89° C | 53% | 1021.6 hPa | 0 mm | - | - | - |
| 1788023101 | 23.89° C | 50% | 1021.7 hPa | 0 mm | - | - | - |
| 1788022770 | 23.89° C | 51% | 1022.1 hPa | 0 mm | - | - | - |
| 1788022471 | 23.89° C | 55% | 1022.3 hPa | 0 mm | - | - | - |
* Rain latest hour (hover to see other rain measurements)
** Current wind speed in m/s (hover to see current wind gust speed)